sat.trackr.live / text

‹ back to catalog

STARLINK-37441

NORAD 68858 · 2026-094V

PAYLOAD ACTIVE UNKNOWN

§ Identity

Operator
Country
US
Launch date
2026-04-26
Launch site
AFWTR
Launch vehicle
Mass (kg)
RCS (m²)

Purposes: comms

External: N2YO · Heavens-Above · Gunter

§ Orbital elements

Epoch: 2026-05-25T04:00:03.998880Z

Period
92.95 min
Inclination
97.2849°
Eccentricity
0.0001436
Mean motion
15.49178505 rev/d
Perigee alt
418.2 km
Apogee alt
420.1 km
Semi-major
6,797.3 km
B*
-2.1055e-4
RAAN
159.9319°
Arg perigee
86.2312°
Mean anomaly
149.2213°
Rev number
567

§ Raw data

STARLINK-374411 68858U 26094V   26145.16671295 -.00011521  00000+0 -21055-3 0  99982 68858  97.2849 159.9319 0001436  86.2312 149.2213 15.49178505  5674

JSON: /api/v1/satellites/68858 · /tle

For live sub-satellite position, see the globe view (requires WebGL).

§ Visibility from observer

Set your observer location to see the next 7 days of passes ≥ 10°. The values pass through the URL so the page stays shareable.

No JS? Fill the form by hand. The geolocation button needs JavaScript.